| time (UTC) | temp F | wind direction | speed MPH | gust MPH | rain 1hr in | rain 24hr in | rain mn in | humidity % | barometer mb |
| 20260901011030 | 87 | 295 | 1.0 | 4.0 | 0.00 | 0.00 | 0.00 | 1008.5 | |
| 20260901010525 | 89 | 286 | 1.0 | 4.0 | 0.00 | 0.00 | 0.00 | 1008.5 | |
| 20260901010045 | 91 | 355 | 1.0 | 4.0 | 0.00 | 0.00 | 0.00 | 1008.4 | |
| 20260901005527 | 89 | 337 | 1.0 | 3.0 | 0.00 | 0.00 | 0.00 | 1008.5 | |
| 20260901005027 | 93 | 0 | 0.0 | 3.0 | 0.00 | 0.00 | 0.00 | 1008.5 | |
| 20260901004557 | 94 | 311 | 1.0 | 4.0 | 0.00 | 0.00 | 0.00 | 1008.5 | |
| 20260901004024 | 90 | 355 | 0.0 | 6.0 | 0.00 | 0.00 | 0.00 | 1008.6 | |
| 20260901003524 | 87 | 268 | 1.0 | 6.0 | 0.00 | 0.00 | 0.00 | 1008.6 | |
| 20260901003052 | 89 | 0 | 1.0 | 6.0 | 0.00 | 0.00 | 0.00 | 1008.5 | |
| 20260901002526 | 89 | 210 | 1.0 | 3.0 | 0.00 | 0.00 | 0.00 | 1008.5 | |
| 20260901002027 | 91 | 355 | 1.0 | 4.0 | 0.00 | 0.00 | 0.00 | 1008.5 | |
| 20260901001549 | 94 | 0 | 0.0 | 4.0 | 0.00 | 0.00 | 0.00 | 1008.5 | |
| 20260901001025 | 98 | 99 | 1.0 | 4.0 | 0.00 | 0.00 | 0.00 | 1008.6 | |
| 20260901000527 | 98 | 311 | 1.0 | 4.0 | 0.00 | 0.00 | 0.00 | 1008.4 | |
| 20260901000057 | 99 | 254 | 1.0 | 3.0 | 0.00 | 0.00 | 0.00 | 1008.5 | |
| 20260831235528 | 100 | 252 | 0.0 | 4.0 | 0.00 | 0.00 | 0.00 | 1008.6 | |
| 20260831235028 | 99 | 0 | 0.0 | 5.0 | 0.00 | 0.00 | 0.00 | 1008.5 | |
| 20260831234557 | 95 | 355 | 1.0 | 5.0 | 0.00 | 0.00 | 0.00 | 1008.6 | |
| 20260831234029 | 95 | 275 | 2.0 | 7.0 | 0.00 | 0.00 | 0.00 | 1008.6 | |
| 20260831233529 | 96 | 0 | 2.0 | 7.0 | 0.00 | 0.00 | 0.00 | 1008.6 | |
| 20260831233050 | 95 | 319 | 2.0 | 6.0 | 0.00 | 0.00 | 0.00 | 1008.6 | |
| 20260831232531 | 95 | 290 | 2.0 | 6.0 | 0.00 | 0.00 | 0.00 | 1008.7 | |
| 20260831232029 | 94 | 39 | 2.0 | 8.0 | 0.00 | 0.00 | 0.00 | 1008.8 | |
| 20260831231603 | 94 | 105 | 2.0 | 8.0 | 0.00 | 0.00 | 0.00 | 1008.7 | |
| 20260831231028 | 93 | 12 | 3.0 | 8.0 | 0.00 | 0.00 | 0.00 | 1008.5 | |
| 20260831230530 | 94 | 268 | 2.0 | 8.0 | 0.00 | 0.00 | 0.00 | 1008.7 | |
| 20260831230100 | 96 | 355 | 1.0 | 13.0 | 0.00 | 0.00 | 0.00 | 1008.8 | |
| 20260831225529 | 92 | 207 | 2.0 | 13.0 | 0.00 | 0.00 | 0.00 | 1008.6 | |
| 20260831225027 | 95 | 274 | 2.0 | 9.0 | 0.00 | 0.00 | 0.00 | 1008.7 | |
| 20260831224619 | 94 | 69 | 3.0 | 9.0 | 0.00 | 0.00 | 0.00 | 1008.5 | |
| 20260831224027 | 96 | 99 | 1.0 | 5.0 | 0.00 | 0.00 | 0.00 | 1008.9 | |
| 20260831223528 | 96 | 216 | 1.0 | 6.0 | 0.00 | 0.00 | 0.00 | 1008.8 | |
| 20260831223059 | 95 | 114 | 1.0 | 10.0 | 0.00 | 0.00 | 0.00 | 1008.9 | |
| 20260831222526 | 93 | 355 | 2.0 | 14.0 | 0.00 | 0.00 | 0.00 | 1008.9 | |
| 20260831222029 | 94 | 275 | 3.0 | 14.0 | 0.00 | 0.00 | 0.00 | 1008.8 | |
| 20260831221555 | 94 | 101 | 2.0 | 10.0 | 0.00 | 0.00 | 0.00 | 1009.1 | |
| 20260831221027 | 90 | 141 | 2.0 | 9.0 | 0.00 | 0.00 | 0.00 | 1009.2 | |
| 20260831220529 | 90 | 55 | 2.0 | 7.0 | 0.00 | 0.00 | 0.00 | 1009.1 | |
| 20260831220053 | 90 | 337 | 3.0 | 8.0 | 0.00 | 0.00 | 0.00 | 1009.2 | |
| 20260831215529 | 89 | 295 | 3.0 | 8.0 | 0.00 | 0.00 | 0.00 | 1009.2 | |
| 20260831215028 | 90 | 170 | 2.0 | 9.0 | 0.00 | 0.00 | 0.00 | 1009.4 | |
| 20260831214549 | 89 | 268 | 3.0 | 10.0 | 0.00 | 0.00 | 0.00 | 1009.3 | |
| 20260831214033 | 89 | 62 | 3.0 | 13.0 | 0.00 | 0.00 | 0.00 | 1009.3 | |
| 20260831213528 | 88 | 303 | 4.0 | 13.0 | 0.00 | 0.00 | 0.00 | 1009.4 | |
| 20260831213101 | 90 | 66 | 3.0 | 17.0 | 0.00 | 0.00 | 0.00 | 1009.3 | |
| 20260831212529 | 88 | 123 | 4.0 | 17.0 | 0.00 | 0.00 | 0.00 | 1009.3 | |
| 20260831212031 | 90 | 134 | 5.0 | 17.0 | 0.00 | 0.00 | 0.00 | 1009.4 | |
| 20260831211605 | 88 | 141 | 5.0 | 17.0 | 0.00 | 0.00 | 0.00 | 1009.3 | |
| 20260831211025 | 87 | 300 | 3.0 | 15.0 | 0.00 | 0.00 | 0.00 | 1009.3 | |
| 20260831210529 | 87 | 315 | 4.0 | 15.0 | 0.00 | 0.00 | 0.00 | 1009.3 | |
| 20260831210057 | 88 | 277 | 4.0 | 14.0 | 0.00 | 0.00 | 0.00 | 1009.5 | |
| 20260831205527 | 87 | 16 | 5.0 | 16.0 | 0.00 | 0.00 | 0.00 | 1009.5 | |
| 20260831205027 | 87 | 345 | 4.0 | 16.0 | 0.00 | 0.00 | 0.00 | 1009.6 | |
| 20260831204546 | 86 | 162 | 5.0 | 17.0 | 0.00 | 0.00 | 0.00 | 1009.4 | |
| 20260831204028 | 85 | 151 | 5.0 | 17.0 | 0.00 | 0.00 | 0.00 | 1009.5 | |
| 20260831203525 | 85 | 141 | 5.0 | 16.0 | 0.00 | 0.00 | 0.00 | 1009.5 | |
| 20260831203048 | 85 | 277 | 4.0 | 25.0 | 0.00 | 0.00 | 0.00 | 1009.6 | |
| 20260831202528 | 85 | 164 | 9.0 | 25.0 | 0.00 | 0.00 | 0.00 | 1009.4 | |
| 20260831202026 | 86 | 111 | 5.0 | 17.0 | 0.00 | 0.00 | 0.00 | 1009.6 | |
| 20260831201556 | 86 | 324 | 4.0 | 19.0 | 0.00 | 0.00 | 0.00 | 1009.8 | |
| 20260831201026 | 86 | 72 | 5.0 | 19.0 | 0.00 | 0.00 | 0.00 | 1009.9 | |
| 20260831200526 | 85 | 109 | 5.0 | 19.0 | 0.00 | 0.00 | 0.00 | 1009.9 | |
| 20260831200050 | 85 | 355 | 5.0 | 21.0 | 0.00 | 0.00 | 0.00 | 1010.0 | |
| 20260831195527 | 85 | 74 | 6.0 | 25.0 | 0.00 | 0.00 | 0.00 | 1010.2 | |
| 20260831195031 | 85 | 64 | 6.0 | 25.0 | 0.00 | 0.00 | 0.00 | 1010.2 | |
| 20260831194555 | 84 | 315 | 6.0 | 25.0 | 0.00 | 0.00 | 0.00 | 1010.3 | |
| 20260831194026 | 84 | 101 | 6.0 | 17.0 | 0.00 | 0.00 | 0.00 | 1010.5 | |
| 20260831193527 | 84 | 311 | 6.0 | 21.0 | 0.00 | 0.00 | 0.00 | 1010.5 | |
| 20260831193057 | 83 | 334 | 5.0 | 21.0 | 0.00 | 0.00 | 0.00 | 1010.6 | |
| 20260831192526 | 84 | 145 | 5.0 | 21.0 | 0.00 | 0.00 | 0.00 | 1010.7 | |
| 20260831192025 | 84 | 114 | 4.0 | 19.0 | 0.00 | 0.00 | 0.00 | 1010.7 | |
| 20260831191551 | 83 | 153 | 5.0 | 15.0 | 0.00 | 0.00 | 0.00 | 1010.7 | |
| 20260831191027 | 82 | 146 | 5.0 | 16.0 | 0.00 | 0.00 | 0.00 | 1010.8 | |
| 20260831190524 | 82 | 280 | 6.0 | 19.0 | 0.00 | 0.00 | 0.00 | 1010.8 | |
| 20260831190050 | 83 | 355 | 5.0 | 19.0 | 0.00 | 0.00 | 0.00 | 1010.9 | |
| 20260831185525 | 83 | 9 | 6.0 | 19.0 | 0.00 | 0.00 | 0.00 | 1011.1 | |
| 20260831185026 | 82 | 319 | 4.0 | 18.0 | 0.00 | 0.00 | 0.00 | 1011.1 | |
| 20260831184551 | 80 | 110 | 5.0 | 16.0 | 0.00 | 0.00 | 0.00 | 1011.1 | |
| 20260831184025 | 81 | 255 | 4.0 | 16.0 | 0.00 | 0.00 | 0.00 | 1011.0 | |
| 20260831183528 | 79 | 158 | 5.0 | 20.0 | 0.00 | 0.00 | 0.00 | 1011.2 | |
| 20260831183048 | 79 | 121 | 5.0 | 20.0 | 0.00 | 0.00 | 0.00 | 1011.2 | |
| 20260831182525 | 79 | 239 | 4.0 | 15.0 | 0.00 | 0.00 | 0.00 | 1011.2 | |
| 20260831182029 | 79 | 243 | 5.0 | 16.0 | 0.00 | 0.00 | 0.00 | 1011.3 | |
| 20260831181548 | 79 | 290 | 6.0 | 17.0 | 0.00 | 0.00 | 0.00 | 1011.3 | |
| 20260831181029 | 79 | 101 | 5.0 | 17.0 | 0.00 | 0.00 | 0.00 | 1011.3 | |
| 20260831180531 | 79 | 277 | 6.0 | 16.0 | 0.00 | 0.00 | 0.00 | 1011.5 | |
| 20260831180059 | 79 | 315 | 5.0 | 19.0 | 0.00 | 0.00 | 0.00 | 1011.5 | |
| 20260831175529 | 78 | 118 | 5.0 | 21.0 | 0.00 | 0.00 | 0.00 | 1011.7 | |
| 20260831175029 | 77 | 106 | 6.0 | 21.0 | 0.00 | 0.00 | 0.00 | 1011.7 | |
| 20260831174550 | 76 | 290 | 7.0 | 18.0 | 0.00 | 0.00 | 0.00 | 1011.8 | |
| 20260831174027 | 77 | 227 | 6.0 | 20.0 | 0.00 | 0.00 | 0.00 | 1011.5 | |
| 20260831173528 | 77 | 115 | 6.0 | 20.0 | 0.00 | 0.00 | 0.00 | 1011.5 | |
| 20260831173049 | 77 | 9 | 6.0 | 23.0 | 0.00 | 0.00 | 0.00 | 1011.5 | |
| 20260831172529 | 76 | 109 | 8.0 | 23.0 | 0.00 | 0.00 | 0.00 | 1011.5 | |
| 20260831172031 | 76 | 77 | 6.0 | 20.0 | 0.00 | 0.00 | 0.00 | 1011.6 | |
| 20260831171555 | 75 | 143 | 7.0 | 20.0 | 0.00 | 0.00 | 0.00 | 1011.7 | |
| 20260831171029 | 75 | 307 | 6.0 | 21.0 | 0.00 | 0.00 | 0.00 | 1011.6 | |
| 20260831170529 | 74 | 290 | 7.0 | 21.0 | 0.00 | 0.00 | 0.00 | 1011.7 | |
| 20260831170050 | 74 | 103 | 8.0 | 19.0 | 0.00 | 0.00 | 0.00 | 1011.8 | |
| 20260831165527 | 74 | 99 | 7.0 | 17.0 | 0.00 | 0.00 | 0.00 | 1011.8 | |
| 20260831165027 | 74 | 90 | 6.0 | 17.0 | 0.00 | 0.00 | 0.00 | 1011.8 | |
| 20260831164549 | 73 | 5 | 6.0 | 21.0 | 0.00 | 0.00 | 0.00 | 1011.9 | |
| 20260831164027 | 73 | 62 | 6.0 | 21.0 | 0.00 | 0.00 | 0.00 | 1011.7 | |
| 20260831163530 | 72 | 69 | 6.0 | 21.0 | 0.00 | 0.00 | 0.00 | 1011.9 | |
| 20260831163055 | 72 | 115 | 6.0 | 20.0 | 0.00 | 0.00 | 0.00 | 1012.0 | |
| 20260831162532 | 72 | 78 | 6.0 | 20.0 | 0.00 | 0.00 | 0.00 | 1012.1 | |
| 20260831162027 | 71 | 169 | 5.0 | 21.0 | 0.00 | 0.00 | 0.00 | 1012.1 | |
| 20260831161551 | 69 | 108 | 7.0 | 21.0 | 0.00 | 0.00 | 0.00 | 1012.3 | |
| 20260831161027 | 70 | 78 | 8.0 | 19.0 | 0.00 | 0.00 | 0.00 | 1012.3 | |
| 20260831160527 | 69 | 72 | 9.0 | 19.0 | 0.00 | 0.00 | 0.00 | 1012.4 | |
| 20260831160047 | 70 | 78 | 5.0 | 13.0 | 0.00 | 0.00 | 0.00 | 1012.5 | |
| 20260831155527 | 69 | 72 | 5.0 | 18.0 | 0.00 | 0.00 | 0.00 | 1012.5 | |
| 20260831155035 | 68 | 119 | 9.0 | 19.0 | 0.00 | 0.00 | 0.00 | 1012.7 | |
| 20260831154624 | 68 | 106 | 6.0 | 19.0 | 0.00 | 0.00 | 0.00 | 1012.6 | |
| 20260831154028 | 67 | 110 | 9.0 | 19.0 | 0.00 | 0.00 | 0.00 | 1012.7 | |
| 20260831153527 | 66 | 100 | 8.0 | 27.0 | 0.00 | 0.00 | 0.00 | 1012.6 | |
| 20260831153057 | 64 | 68 | 9.0 | 27.0 | 0.00 | 0.00 | 0.00 | 1012.5 | |
| 20260831152529 | 62 | 108 | 9.0 | 22.0 | 0.00 | 0.00 | 0.00 | 1012.5 | |
| 20260831152030 | 61 | 46 | 8.0 | 22.0 | 0.00 | 0.00 | 0.00 | 1012.7 | |
| 20260831151606 | 60 | 183 | 8.0 | 22.0 | 0.00 | 0.00 | 0.00 | 1012.7 | |
| 20260831151031 | 60 | 43 | 4.0 | 19.0 | 0.00 | 0.00 | 0.00 | 1012.8 | |
| 20260831150530 | 60 | 113 | 6.0 | 19.0 | 0.00 | 0.00 | 0.00 | 1012.8 | |
| 20260831150049 | 59 | 124 | 7.0 | 22.0 | 0.00 | 0.00 | 0.00 | 1012.7 | |
| 20260831145525 | 59 | 78 | 12.0 | 22.0 | 0.00 | 0.00 | 0.00 | 1012.7 | |
| 20260831145030 | 59 | 80 | 9.0 | 21.0 | 0.00 | 0.00 | 0.00 | 1012.8 | |
| 20260831144556 | 58 | 55 | 11.0 | 23.0 | 0.00 | 0.00 | 0.00 | 1012.8 | |
| 20260831144028 | 58 | 149 | 12.0 | 23.0 | 0.00 | 0.00 | 0.00 | 1012.9 | |
| 20260831143527 | 58 | 3 | 8.0 | 18.0 | 0.00 | 0.00 | 0.00 | 1012.9 | |
| 20260831143105 | 58 | 99 | 8.0 | 20.0 | 0.00 | 0.00 | 0.00 | 1012.9 | |
| 20260831142525 | 58 | 101 | 8.0 | 20.0 | 0.00 | 0.00 | 0.00 | 1012.8 | |
| 20260831142029 | 58 | 109 | 9.0 | 20.0 | 0.00 | 0.00 | 0.00 | 1012.8 | |
| 20260831141548 | 58 | 59 | 11.0 | 20.0 | 0.00 | 0.00 | 0.00 | 1013.1 | |
| 20260831141026 | 57 | 101 | 8.0 | 20.0 | 0.00 | 0.00 | 0.00 | 1013.1 | |
| 20260831140525 | 57 | 101 | 10.0 | 21.0 | 0.00 | 0.00 | 0.00 | 1012.9 | |
| 20260831140048 | 57 | 60 | 10.0 | 21.0 | 0.00 | 0.00 | 0.00 | 1013.0 | |
| 20260831135526 | 57 | 155 | 7.0 | 20.0 | 0.00 | 0.00 | 0.00 | 1012.9 | |
| 20260831135025 | 57 | 47 | 6.0 | 22.0 | 0.00 | 0.00 | 0.00 | 1013.0 | |
| 20260831134601 | 57 | 141 | 11.0 | 22.0 | 0.00 | 0.00 | 0.00 | 1013.0 | |
| 20260831134024 | 57 | 76 | 7.0 | 18.0 | 0.00 | 0.00 | 0.00 | 1013.0 | |
| 20260831133524 | 57 | 112 | 7.0 | 18.0 | 0.00 | 0.00 | 0.00 | 1013.0 | |
| 20260831133056 | 57 | 341 | 7.0 | 17.0 | 0.00 | 0.00 | 0.00 | 1012.9 | |
| 20260831132528 | 57 | 105 | 8.0 | 19.0 | 0.00 | 0.00 | 0.00 | 1013.1 | |
| 20260831132032 | 57 | 108 | 9.0 | 19.0 | 0.00 | 0.00 | 0.00 | 1013.1 | |
| 20260831131605 | 56 | 67 | 5.0 | 16.0 | 0.00 | 0.00 | 0.00 | 1013.1 | |
| 20260831131024 | 56 | 114 | 9.0 | 16.0 | 0.00 | 0.00 | 0.00 | 1013.1 | |
| 20260831130527 | 56 | 128 | 7.0 | 16.0 | 0.00 | 0.00 | 0.00 | 1013.1 | |
| 20260831130106 | 56 | 103 | 7.0 | 20.0 | 0.00 | 0.00 | 0.00 | 1013.2 | |
| 20260831125527 | 57 | 121 | 9.0 | 20.0 | 0.00 | 0.00 | 0.00 | 1013.3 | |
| 20260831125028 | 57 | 103 | 9.0 | 23.0 | 0.00 | 0.00 | 0.00 | 1013.3 | |
| 20260831124601 | 57 | 76 | 9.0 | 23.0 | 0.00 | 0.00 | 0.00 | 1013.3 | |
| 20260831124025 | 57 | 65 | 9.0 | 18.0 | 0.00 | 0.00 | 0.00 | 1013.3 | |
| 20260831123525 | 57 | 74 | 8.0 | 16.0 | 0.00 | 0.00 | 0.00 | 1013.5 | |
| 20260831123057 | 56 | 268 | 8.0 | 16.0 | 0.00 | 0.00 | 0.00 | 1013.3 | |
| 20260831122529 | 56 | 134 | 4.0 | 15.0 | 0.00 | 0.00 | 0.00 | 1013.5 | |
| 20260831122027 | 57 | 108 | 8.0 | 16.0 | 0.00 | 0.00 | 0.00 | 1013.5 | |
| 20260831121551 | 57 | 105 | 7.0 | 18.0 | 0.00 | 0.00 | 0.00 | 1013.5 | |
| 20260831121032 | 57 | 99 | 6.0 | 20.0 | 0.00 | 0.00 | 0.00 | 1013.6 | |
| 20260831120527 | 57 | 76 | 8.0 | 20.0 | 0.00 | 0.00 | 0.00 | 1013.5 | |
| 20260831120055 | 57 | 109 | 6.0 | 17.0 | 0.00 | 0.00 | 0.00 | 1013.5 | |
| 20260831115529 | 57 | 3 | 7.0 | 15.0 | 0.00 | 0.00 | 0.00 | 1013.5 | |
| 20260831115028 | 57 | 299 | 6.0 | 15.0 | 0.00 | 0.00 | 0.00 | 1013.7 | |
| 20260831114559 | 56 | 111 | 3.0 | 12.0 | 0.00 | 0.00 | 0.00 | 1013.6 | |
| 20260831114025 | 56 | 106 | 4.0 | 12.0 | 0.00 | 0.00 | 0.00 | 1013.8 | |
| 20260831113525 | 57 | 111 | 8.0 | 13.0 | 0.00 | 0.00 | 0.00 | 1013.7 | |
| 20260831113051 | 57 | 105 | 7.0 | 13.0 | 0.00 | 0.00 | 0.00 | 1013.7 | |
| 20260831112527 | 57 | 103 | 6.0 | 12.0 | 0.00 | 0.00 | 0.00 | 1013.8 | |
| 20260831112029 | 57 | 112 | 7.0 | 12.0 | 0.00 | 0.00 | 0.00 | 1013.8 | |
| 20260831111545 | 57 | 76 | 5.0 | 12.0 | 0.00 | 0.00 | 0.00 | 1013.9 | |
| 20260831111032 | 57 | 101 | 7.0 | 12.0 | 0.00 | 0.00 | 0.00 | 1014.0 | |
| 20260831110531 | 57 | 11 | 7.0 | 12.0 | 0.00 | 0.00 | 0.00 | 1014.0 | |
| 20260831110047 | 57 | 108 | 6.0 | 13.0 | 0.00 | 0.00 | 0.00 | 1014.2 | |
| 20260831105530 | 57 | 68 | 5.0 | 13.0 | 0.00 | 0.00 | 0.00 | 1013.9 | |
| 20260831105026 | 57 | 78 | 7.0 | 12.0 | 0.00 | 0.00 | 0.00 | 1014.0 | |
| 20260831104555 | 57 | 140 | 6.0 | 14.0 | 0.00 | 0.00 | 0.00 | 1014.0 | |
| 20260831104025 | 57 | 99 | 7.0 | 14.0 | 0.00 | 0.00 | 0.00 | 1014.0 | |
| 20260831103525 | 57 | 111 | 5.0 | 13.0 | 0.00 | 0.00 | 0.00 | 1014.1 | |
| 20260831103054 | 57 | 110 | 6.0 | 11.0 | 0.00 | 0.00 | 0.00 | 1014.0 | |
| 20260831102529 | 57 | 106 | 7.0 | 11.0 | 0.00 | 0.00 | 0.00 | 1014.2 | |
| 20260831102028 | 57 | 116 | 5.0 | 12.0 | 0.00 | 0.00 | 0.00 | 1014.1 | |
| 20260831101558 | 58 | 123 | 4.0 | 12.0 | 0.00 | 0.00 | 0.00 | 1014.2 | |
| 20260831101028 | 58 | 136 | 7.0 | 12.0 | 0.00 | 0.00 | 0.00 | 1014.2 | |
| 20260831100524 | 58 | 109 | 4.0 | 9.0 | 0.00 | 0.00 | 0.00 | 1014.2 | |
| 20260831095524 | 58 | 10 | 3.0 | 9.0 | 0.00 | 0.00 | 0.00 | 1014.4 | |
| 20260831095031 | 58 | 112 | 4.0 | 9.0 | 0.00 | 0.00 | 0.00 | 1014.4 | |
| 20260831094610 | 58 | 117 | 4.0 | 9.0 | 0.00 | 0.00 | 0.00 | 1014.4 | |
| 20260831094029 | 58 | 116 | 4.0 | 11.0 | 0.00 | 0.00 | 0.00 | 1014.4 | |
| 20260831093523 | 58 | 111 | 5.0 | 11.0 | 0.00 | 0.00 | 0.00 | 1014.4 | |
| 20260831093055 | 58 | 71 | 5.0 | 11.0 | 0.00 | 0.00 | 0.00 | 1014.6 | |
| 20260831092529 | 59 | 31 | 4.0 | 12.0 | 0.00 | 0.00 | 0.00 | 1014.6 | |
| 20260831092027 | 59 | 132 | 6.0 | 12.0 | 0.00 | 0.00 | 0.00 | 1014.7 | |
| 20260831091548 | 59 | 115 | 6.0 | 14.0 | 0.00 | 0.00 | 0.00 | 1014.7 | |
| 20260831091024 | 59 | 122 | 7.0 | 14.0 | 0.00 | 0.00 | 0.00 | 1014.8 | |
| 20260831090527 | 59 | 74 | 7.0 | 13.0 | 0.00 | 0.00 | 0.00 | 1014.8 | |
| 20260831090053 | 59 | 111 | 9.0 | 14.0 | 0.00 | 0.00 | 0.00 | 1014.9 | |
| 20260831085528 | 59 | 109 | 9.0 | 14.0 | 0.00 | 0.00 | 0.00 | 1015.0 | |
| 20260831085028 | 59 | 105 | 9.0 | 13.0 | 0.00 | 0.00 | 0.00 | 1015.1 | |
| 20260831084549 | 59 | 113 | 8.0 | 13.0 | 0.00 | 0.00 | 0.00 | 1015.0 | |
| 20260831084028 | 60 | 112 | 6.0 | 13.0 | 0.00 | 0.00 | 0.00 | 1015.1 | |
| 20260831083525 | 59 | 130 | 10.0 | 13.0 | 0.00 | 0.00 | 0.00 | 1015.0 | |
| 20260831083046 | 59 | 120 | 9.0 | 13.0 | 0.00 | 0.00 | 0.00 | 1015.1 | |
| 20260831082530 | 59 | 114 | 11.0 | 13.0 | 0.00 | 0.00 | 0.00 | 1015.1 | |
| 20260831082024 | 59 | 118 | 11.0 | 13.0 | 0.00 | 0.00 | 0.00 | 1015.1 | |
| 20260831081551 | 59 | 134 | 9.0 | 13.0 | 0.00 | 0.00 | 0.00 | 1015.3 | |
| 20260831081025 | 59 | 116 | 10.0 | 12.0 | 0.00 | 0.00 | 0.00 | 1015.2 | |
| 20260831080528 | 59 | 111 | 9.0 | 12.0 | 0.00 | 0.00 | 0.00 | 1015.4 | |
| 20260831080050 | 60 | 113 | 5.0 | 11.0 | 0.00 | 0.00 | 0.00 | 1015.4 | |
| 20260831075529 | 60 | 112 | 9.0 | 11.0 | 0.00 | 0.00 | 0.00 | 1015.5 | |
| 20260831075031 | 60 | 109 | 7.0 | 11.0 | 0.00 | 0.00 | 0.00 | 1015.6 | |
| 20260831074557 | 59 | 106 | 3.0 | 5.0 | 0.00 | 0.00 | 0.00 | 1015.6 | |
| 20260831074029 | 59 | 141 | 1.0 | 3.0 | 0.00 | 0.00 | 0.00 | 1015.5 | |
| 20260831073526 | 58 | 166 | 1.0 | 3.0 | 0.00 | 0.00 | 0.00 | 1015.7 | |
| 20260831073051 | 59 | 183 | 1.0 | 3.0 | 0.00 | 0.00 | 0.00 | 1015.6 | |
| 20260831072526 | 58 | 151 | 1.0 | 3.0 | 0.00 | 0.00 | 0.00 | 1015.7 | |
| 20260831072026 | 58 | 288 | 1.0 | 3.0 | 0.00 | 0.00 | 0.00 | 1015.8 | |
| 20260831071607 | 58 | 216 | 1.0 | 3.0 | 0.00 | 0.00 | 0.00 | 1015.8 | |
| 20260831071026 | 58 | 207 | 1.0 | 4.0 | 0.00 | 0.00 | 0.00 | 1015.7 | |
| 20260831070528 | 59 | 192 | 1.0 | 4.0 | 0.00 | 0.00 | 0.00 | 1015.9 | |
| 20260831070047 | 59 | 227 | 1.0 | 3.0 | 0.00 | 0.00 | 0.00 | 1015.8 | |
| 20260831065530 | 59 | 216 | 1.0 | 3.0 | 0.00 | 0.00 | 0.00 | 1015.9 | |
| 20260831065032 | 59 | 90 | 1.0 | 3.0 | 0.00 | 0.00 | 0.00 | 1016.0 | |
| 20260831064605 | 59 | 120 | 1.0 | 3.0 | 0.00 | 0.00 | 0.00 | 1016.0 | |
| 20260831064031 | 59 | 183 | 1.0 | 4.0 | 0.00 | 0.00 | 0.00 | 1016.0 | |
| 20260831063527 | 59 | 216 | 1.0 | 5.0 | 0.00 | 0.00 | 0.00 | 1016.1 | |
| 20260831063052 | 59 | 232 | 2.0 | 5.0 | 0.00 | 0.00 | 0.00 | 1016.0 | |
| 20260831062531 | 59 | 268 | 2.0 | 5.0 | 0.00 | 0.00 | 0.00 | 1016.1 | |
| 20260831062025 | 60 | 243 | 2.0 | 5.0 | 0.00 | 0.00 | 0.00 | 1015.9 | |
| 20260831061551 | 62 | 283 | 3.0 | 5.0 | 0.00 | 0.00 | 0.00 | 1016.2 | |
| 20260831061025 | 61 | 277 | 3.0 | 6.0 | 0.00 | 0.00 | 0.00 | 1016.3 | |
| 20260831060528 | 62 | 275 | 2.0 | 6.0 | 0.00 | 0.00 | 0.00 | 1016.3 | |
| 20260831060104 | 61 | 290 | 1.0 | 6.0 | 0.00 | 0.00 | 0.00 | 1016.3 | |
| 20260831055535 | 62 | 306 | 2.0 | 6.0 | 0.00 | 0.00 | 0.00 | 1016.4 | |
| 20260831055027 | 62 | 279 | 3.0 | 6.0 | 0.00 | 0.00 | 0.00 | 1016.3 | |
| 20260831054547 | 62 | 355 | 2.0 | 5.0 | 0.00 | 0.00 | 0.00 | 1016.4 | |
| 20260831054030 | 62 | 317 | 1.0 | 7.0 | 0.00 | 0.00 | 0.00 | 1016.4 | |
| 20260831053527 | 62 | 0 | 2.0 | 7.0 | 0.00 | 0.00 | 0.00 | 1016.4 | |
| 20260831053051 | 63 | 356 | 2.0 | 6.0 | 0.00 | 0.00 | 0.00 | 1016.3 | |
| 20260831052525 | 63 | 149 | 2.0 | 9.0 | 0.00 | 0.00 | 0.00 | 1016.6 | |
| 20260831052027 | 63 | 302 | 4.0 | 9.0 | 0.00 | 0.00 | 0.00 | 1016.5 | |
| 20260831051557 | 63 | 278 | 3.0 | 8.0 | 0.00 | 0.00 | 0.00 | 1016.6 | |
| 20260831051027 | 63 | 285 | 2.0 | 8.0 | 0.00 | 0.00 | 0.00 | 1016.6 | |
| 20260831050528 | 63 | 303 | 3.0 | 7.0 | 0.00 | 0.00 | 0.00 | 1016.8 | |
| 20260831050058 | 64 | 311 | 2.0 | 7.0 | 0.00 | 0.00 | 0.00 | 1016.9 | |
| 20260831045527 | 64 | 284 | 2.0 | 8.0 | 0.00 | 0.00 | 0.00 | 1016.7 | |
| 20260831045028 | 64 | 247 | 1.0 | 10.0 | 0.00 | 0.00 | 0.00 | 1016.8 | |
| 20260831044550 | 64 | 306 | 2.0 | 11.0 | 0.00 | 0.00 | 0.00 | 1016.8 | |
| 20260831044029 | 64 | 311 | 4.0 | 11.0 | 0.00 | 0.00 | 0.00 | 1016.9 | |
| 20260831043527 | 64 | 268 | 1.0 | 8.0 | 0.00 | 0.00 | 0.00 | 1017.0 | |
| 20260831043053 | 64 | 302 | 2.0 | 8.0 | 0.00 | 0.00 | 0.00 | 1017.0 | |
| 20260831042528 | 65 | 141 | 1.0 | 10.0 | 0.00 | 0.00 | 0.00 | 1017.0 | |
| 20260831042027 | 64 | 333 | 4.0 | 11.0 | 0.00 | 0.00 | 0.00 | 1017.0 | |
| 20260831041550 | 65 | 292 | 5.0 | 11.0 | 0.00 | 0.00 | 0.00 | 1016.9 | |
| 20260831041030 | 65 | 305 | 2.0 | 8.0 | 0.00 | 0.00 | 0.00 | 1017.0 | |
| 20260831040528 | 65 | 134 | 2.0 | 8.0 | 0.00 | 0.00 | 0.00 | 1017.1 | |
| 20260831040054 | 65 | 255 | 3.0 | 8.0 | 0.00 | 0.00 | 0.00 | 1017.1 | |
| 20260831035526 | 65 | 286 | 1.0 | 7.0 | 0.00 | 0.00 | 0.00 | 1017.1 | |
| 20260831035025 | 66 | 166 | 1.0 | 8.0 | 0.00 | 0.00 | 0.00 | 1017.0 | |
| 20260831034550 | 66 | 277 | 2.0 | 8.0 | 0.00 | 0.00 | 0.00 | 1017.0 | |
| 20260831034027 | 66 | 300 | 1.0 | 6.0 | 0.00 | 0.00 | 0.00 | 1017.1 | |
| 20260831033528 | 66 | 198 | 1.0 | 5.0 | 0.00 | 0.00 | 0.00 | 1017.1 | |
| 20260831033052 | 66 | 183 | 1.0 | 5.0 | 0.00 | 0.00 | 0.00 | 1017.1 | |
| 20260831032528 | 67 | 227 | 1.0 | 4.0 | 0.00 | 0.00 | 0.00 | 1017.1 | |
| 20260831032030 | 66 | 39 | 2.0 | 4.0 | 0.00 | 0.00 | 0.00 | 1017.0 | |
| 20260831031553 | 67 | 308 | 1.0 | 4.0 | 0.00 | 0.00 | 0.00 | 1017.1 | |
| 20260831031027 | 67 | 291 | 1.0 | 5.0 | 0.00 | 0.00 | 0.00 | 1017.1 | |
| 20260831030525 | 67 | 268 | 1.0 | 5.0 | 0.00 | 0.00 | 0.00 | 1017.2 | |
| 20260831030050 | 68 | 141 | 1.0 | 4.0 | 0.00 | 0.00 | 0.00 | 1017.0 | |
| 20260831025528 | 68 | 120 | 1.0 | 5.0 | 0.00 | 0.00 | 0.00 | 1017.1 | |
| 20260831025028 | 68 | 254 | 1.0 | 5.0 | 0.00 | 0.00 | 0.00 | 1017.0 | |
| 20260831024546 | 68 | 280 | 1.0 | 7.0 | 0.00 | 0.00 | 0.00 | 1017.2 | |
| 20260831024028 | 68 | 268 | 2.0 | 7.0 | 0.00 | 0.00 | 0.00 | 1017.3 | |
| 20260831023524 | 69 | 329 | 1.0 | 7.0 | 0.00 | 0.00 | 0.00 | 1017.4 | |
| 20260831023107 | 69 | 22 | 2.0 | 10.0 | 0.00 | 0.00 | 0.00 | 1017.4 | |
| 20260831022528 | 69 | 207 | 2.0 | 10.0 | 0.00 | 0.00 | 0.00 | 1017.4 | |
| 20260831022027 | 70 | 12 | 2.0 | 7.0 | 0.00 | 0.00 | 0.00 | 1017.4 | |
| 20260831021553 | 70 | 16 | 2.0 | 7.0 | 0.00 | 0.00 | 0.00 | 1017.5 | |
| 20260831021031 | 70 | 118 | 1.0 | 7.0 | 0.00 | 0.00 | 0.00 | 1017.4 | |
| 20260831020527 | 70 | 319 | 1.0 | 8.0 | 0.00 | 0.00 | 0.00 | 1017.5 | |
| 20260831020110 | 70 | 277 | 2.0 | 8.0 | 0.00 | 0.00 | 0.00 | 1017.5 | |
| 20260831015526 | 71 | 154 | 2.0 | 9.0 | 0.00 | 0.00 | 0.00 | 1017.5 | |
| 20260831015025 | 71 | 297 | 3.0 | 9.0 | 0.00 | 0.00 | 0.00 | 1017.5 | |
| 20260831014550 | 72 | 290 | 3.0 | 8.0 | 0.00 | 0.00 | 0.00 | 1017.4 | |
| 20260831014028 | 74 | 42 | 2.0 | 7.0 | 0.00 | 0.00 | 0.00 | 1017.7 | |
| 20260831013525 | 78 | 295 | 2.0 | 8.0 | 0.00 | 0.00 | 0.00 | 1017.6 | |
| 20260831013050 | 77 | 355 | 3.0 | 7.0 | 0.00 | 0.00 | 0.00 | 1017.6 | |
| 20260831012527 | 81 | 275 | 1.0 | 7.0 | 0.00 | 0.00 | 0.00 | 1017.6 | |
| 20260831012028 | 83 | 183 | 1.0 | 9.0 | 0.00 | 0.00 | 0.00 | 1017.5 | |
| 20260831011556 | 80 | 307 | 2.0 | 9.0 | 0.00 | 0.00 | 0.00 | 1017.8 |